STARLINK-34216, 64337

Orbit data source: Space-Track

STARLINK-34216, 64337 is a payload satellite owned by SpaceX/Seattle (US) in LEO that was launched on Tue, 10 Jun 2025 UTC via an FALCON 9 launch vehicle from the Air Force Eastern Test Range (AFETR). Payload-class satellites include a variety of spacecraft equipped with specific instruments for various scientific and technological missions. These include communications satellites like Starlink; space stations such as the ISS; scientific satellites like the Hubble; Earth observation satellites from companies like Planet Labs, Umbra, and HawkEye 360; GPS; miniature CubeSats for education and research; and military/defense satellites.

Loading next visibility...
Identifier
64337, 2025-124W
Orbit
LEO
Country
Flag of USUS
Related business
Manufacturer
SpaceX/Seattle
Mission
Operational Commercial Communications
Bus & Motor
STARLINK V2MO, Unknown motor
Mass
575 kg wet, ~530 kg dry
Launch date (UTC)
2025-06-10 (11 months ago)
Launch vehicle
FALCON 9
Launch site
Air Force Eastern Test Range (AFETR)
Object type
Payload
Rocket body
Debris
Shape & HBR
Box + 2 Pan, 17.7 m
Radar Cross Section
36.964 m², Large (>1 m²)

Expand to show TLE details & history
Last TLE update: 14 hours ago

TLE from 14 hours ago
0 STARLINK-34216
1 64337U 25124W   26119.68555657  .00024700  00000-0  90376-3 0  9994
2 64337  42.9991 193.3565 0001614 284.3024  75.7649 15.27591789 49584
Epoch: 2026-04-29T16:27Z
TLE epoch observation values (Epoch: 2026-04-29T16:27:12.087Z)
Latitude
0.00002°
Longitude
88.91319°
Altitude
482.517 km
Speed
7.626 km/s
True Right ascension
12h 53m 25s
True Declination
0° 00' 00"
Sunlit
Object was in full shadow at epoch
Visualization orbit readout
Latitude
Unknown
Longitude
Unknown
Altitude
Unknown
Speed
Unknown
Apparent Right ascension
Unknown
Apparent Declination
Unknown
Sunlit
N/A
Visualization observer readout
Local Sidereal Time
13:37:35
Azimuth
Unknown
Elevation
Unknown
Doppler factor
Unknown
Orbital elements
Apogee altitude
486.067 km
Perigee altitude
483.851 km
Semi-major axis
6,863.096 km
Eccentricity
0.00016
Inclination
42.9991°
RAAN
193.3565°
Arg. of periapsis
284.3024°
True anomaly
75.78283°
Mean anomaly
75.7649°
Eccentric anomaly
75.77386°
Mean motion
3.81736 °/min
Orbital period
94.31 mins
BSTAR
0.00090376
Loading maneuver chart data...
Computing Atmospheric mass density...
Loading historical data...
Loading historical data...
Loading historical data...
Loading historical data...
Loading historical data...
Loading historical data...
Loading historical data...

Documentation

Showing up to 5 results
|